Regional Weather Roundup
Issued by NWS

Home | Current Version | Previous Version | Text Only | Print | Product List | Glossary Off
Versions: 1 2 3 4 5 6 7 8 9 10 11 12 13 14 15 16 17 18 19 20 21 22 23 24 25 26 27 28 29 30 31 32 33 34 35 36 37 38 39 40 41 42 43 44 45 46 47 48 49 50

000
ASUS45 KTFX 040304
RWRMT
MONTANA HOURLY WEATHER ROUNDUP
NATIONAL WEATHER SERVICE GREAT FALLS MT
804 PM MST TUE MAR 3 2015

NOTE: "FAIR" INDICATES FEW OR NO CLOUDS BELOW 12000 FEET WITH NO
SIGNIFICANT WEATHER AND/OR OBSTRUCTIONS TO VISIBILITY.

* THESE STATIONS ARE NOT UNDER NWS QUALITY CONTROL. THEY DO NOT
   REPORT WEATHER SUCH AS PRECIPITATION OR FOG.

MTZ001>007-043-040400-
WEST OF THE DIVIDE
CITY           SKY/WX    TMP DP  RH WIND       PRES   REMARKS
KALISPELL      CLEAR     21  10  62 SW3       30.09R
MISSOULA       CLOUDY    25   7  46 N6        30.10R WCI  18
BUTTE          FAIR       9   0  66 SE3       29.96R
MULLAN PASS    FAIR      12   7  80 NW3       29.94S
* ANACONDA     PTCLDY    12   3  67 N/A        N/A
* ESSEX        N/A       14   3  61 SW1        N/A
* LINCOLN      N/A       18  -1  43 W4G15      N/A
* LOOKOUT PASS N/A       17   7  65 VRB2       N/A
* POLSON       N/A       16   7  67 SE2        N/A
* RONAN APT    PTCLDY    21  10  62 N/A        N/A
* SEELEY LAKE  N/A       12  -2  53 N2G10      N/A
* THOMP F APT  CLEAR     16   2  54 W5G12      N/A   WCI   8
$$

MTZ008-052>055-040400-
SOUTHWEST MONTANA
CITY           SKY/WX    TMP DP  RH WIND       PRES   REMARKS
BOZEMAN        CLEAR      7  -2  66 S6        30.04R WCI  -4
DILLON         CLEAR      9   1  70 SE5       29.95R
* W YELLOWSTON PTCLDY     9  -5  52 SW2        N/A
* THREE FORKS  CLEAR     12  -4  48 N/A        N/A
* BOULDER HILL N/A        6  -3  66 SW1        N/A
* MONIDA PASS  N/A        9   1  70 W2         N/A
* RAYNOLDS PAS N/A        4 -31  17 NE1        N/A
* WHITEHALL    N/A       17   0  47 E6G11      N/A   WCI   8
* WISE RIVER   N/A       17   0  47 W4G15      N/A
$$

MTZ009>010-012-014-046-048-049-054-040400-
EAST SLOPES AND CENTRAL MONTANA
CITY           SKY/WX    TMP DP  RH WIND       PRES   REMARKS
CUT BANK       MOCLDY     7  -2  66 W9        30.09R WCI  -6
GREAT FALLS    CLEAR     10  -2  58 CALM      30.09R
HELENA         FAIR      18   3  52 W8        30.04R WCI   8
* DEARBORN     N/A       13   3  64 NW1        N/A
* EAST GLACIER N/A      N/A N/A N/A N/A        N/A
* MONARCH      N/A       -1 -14  53 E1         N/A
* PENDROY      N/A        2  -5  72 NW7        N/A   WCI -11
* ROGERS PASS  N/A        6   0  76 NW1        N/A
* SWEET GRASS  N/A       10  -7  46 N14G19     N/A   WCI  -6
$$

MTZ011-013-016-021-035-040-045-047-050-051-040400-
NORTH CENTRAL MONTANA
CITY           SKY/WX    TMP DP  RH WIND       PRES   REMARKS
HAVRE          CLEAR     10   1  67 NW9       30.13R WCI  -3
LEWISTOWN      CLEAR      3  -6  66 W10       30.02R WCI -12
* N BAR RANCH  CLOUDY     9  -4  55 NW16G24   29.96S WCI  -8
* CHESTER      N/A       11  -4  50 N7G12      N/A
* DENTON       N/A       11  -1  58 W11        N/A   WCI  -3
* GEYSER       N/A        7  -3  63 W9         N/A   WCI  -6
* JUDITH GAP   N/A        1  -9  62 VRB9       N/A   WCI -14
* LOMA         N/A       14  -4  44 NW6        N/A   WCI   5
$$

MTZ017>020-022>027-061-062-040400-
NORTHEAST MONTANA
CITY           SKY/WX    TMP DP  RH WIND       PRES   REMARKS
GLASGOW        MOCLDY    10  -2  58 NW20      30.06R WCI  -9
JORDAN         CLEAR     12  -2  53 NW15      30.04R WCI  -4
SIDNEY         MOCLDY    10   0  64 W7        30.04S WCI  -1
WOLF POINT     HAZE      10   3  73 N14       30.07R WCI  -6
* BEAVER HILL  N/A       11  -3  53 SW14G29    N/A   WCI  -5
* CIRCLE       N/A       13   0  56 NW8G17     N/A   WCI   2
* LINDSAY DVD  N/A       10  -5  50 NW22G30    N/A   WCI -10
* NAVAJO       N/A        1  -5  75 N17        N/A   WCI -19
* SACO         N/A       10  -3  55 NW17G22    N/A   WCI  -8
$$

MTZ028>042-056>058-040400-
SOUTHCENTRAL AND SOUTHEAST MONTANA
CITY           SKY/WX    TMP DP  RH WIND       PRES   REMARKS
BAKER          FAIR       5  -6  60 W7        29.99R WCI  -7
BILLINGS       PTCLDY    14  -2  49 W8        30.05R WCI   3
LIVINGSTON     PTCLDY     9  -2  61 W7        30.02R WCI  -2
MILES CITY     CLEAR     10  -2  58 W9        30.04S WCI  -3
* LAUREL APT   PTCLDY    10  -6  48 N/A        N/A
* ROUNDUP APT  CLEAR     16  -9  32 NW13G22    N/A   WCI   2
* ALZADA       N/A        0  -7  72 W4         N/A
* HYSHAM       N/A       13  -7  40 NW13G20    N/A   WCI  -2
* REED POINT   N/A       13  -3  48 SE6        N/A   WCI   4
* ROSCOE HILL  N/A        5  -6  60 S6         N/A   WCI  -6
$$

REGIONAL REPORTS...DAKOTAS
CITY           SKY/WX    TMP DP  RH WIND       PRES   REMARKS
WILLISTON      LGT SNOW   7   0  73 W7        30.01R VSB 1 3/4 WCI  -5
DICKINSON      CLEAR      1  -8  65 W6        29.95S WCI -11
BEACH          CLOUDY    10  -2  58 W15       29.97F WCI  -7
CROSBY         MOCLDY     1  -2  87 NW14G21   30.00R WCI -18
WATFORD CITY   HAZE       5   0  80 CALM      29.97F
BISMARCK       PTCLDY     5  -4  66 NW9       30.06R WCI  -9
GRAND FORKS    MOCLDY     1  -8  65 W9        30.01R WCI -14
FARGO          CLEAR      3  -8  60 NW17      30.04R WCI -17
BUFFALO SD     CLEAR      3  -6  66 NW12      29.92R WCI -14
RAPID CITY     PTCLDY     9  -2  61 N12       30.02R WCI  -6
$$

REGIONAL REPORTS...WYOMING/IDAHO/WASHINGTON
CITY           SKY/WX    TMP DP  RH WIND       PRES   REMARKS
GILLETTE       PTCLDY     0  -6  75 W7        29.97R WCI -13
SHERIDAN       PTCLDY    -2  -9  72 SE5       30.01R WCI -13
CODY           PTCLDY     7  -2  66 W3        29.97R
YELLOWSTONE LA PTCLDY     0  -8  68 CALM      29.83R
SALMON         PTCLDY    27   9  46 N9        29.99R WCI  18
MULLAN PASS    FAIR      12   7  80 NW3       29.94S
SAND POINT     CLEAR     27  16  63 W3        30.12R
SPOKANE        CLEAR     30   9  41 SW7       30.11R WCI  23

$$



USA.gov is the U.S. government's official web portal to all federal, state and local government web resources and services.